When you browse on this site, cookies collect data to enhance your experience and personalize the content and advertising you see.
Visit our Privacy Policy to learn more. By continuing to use the site, you agree to this use of cookies and data.
  • In Spain
  • List of Countries
  • For 7 days
  • Water Temperature
  • Satellite Maps
  • Weather Map
  • Weather Widgets
  • user-avatar
    Login

    Hourly Weather Monterey

    Today, 19 June, Wednesday

    Time Temperature Precipitation Wind Pressure Humidity
    00:00 +18°C° 0 mm 1 mps 754 mmHg 89%
    01:00 +18°C° 0 mm 1 mps 754 mmHg 88%
    02:00 +18°C° 0 mm 1 mps 753 mmHg 87%
    03:00 +16°C° 0 mm 1 mps 753 mmHg 87%
    04:00 +16°C° 0 mm 1 mps 753 mmHg 86%
    05:00 +19°C° 0 mm 1 mps 753 mmHg 82%
    06:00 +20°C° 0 mm 1 mps 754 mmHg 78%
    07:00 +21°C° 0 mm 1 mps 754 mmHg 73%
    08:00 +23°C° 0 mm 2 mps 754 mmHg 68%
    09:00 +24°C° 0 mm 3 mps 754 mmHg 63%
    10:00 +26°C° 0 mm 3 mps 754 mmHg 58%
    11:00 +26°C° 0 mm 4 mps 754 mmHg 58%
    12:00 +26°C° 0 mm 4 mps 753 mmHg 59%
    13:00 +26°C° 0 mm 4 mps 753 mmHg 60%
    14:00 +25°C° 0 mm 4 mps 753 mmHg 62%
    15:00 +25°C° 0 mm 4 mps 752 mmHg 65%
    16:00 +23°C° 0 mm 4 mps 752 mmHg 67%
    17:00 +21°C° 0 mm 3 mps 752 mmHg 75%
    18:00 +19°C° 0 mm 3 mps 752 mmHg 83%
    19:00 +17°C° 0 mm 2 mps 752 mmHg 90%
    20:00 +17°C° 0 mm 2 mps 752 mmHg 90%
    21:00 +17°C° 0 mm 2 mps 752 mmHg 90%
    22:00 +16°C° 0 mm 2 mps 753 mmHg 90%
    23:00 +16°C° 0 mm 2 mps 753 mmHg 90%

    Tomorrow, 20 June, Thursday

    Time Temperature Precipitation Wind Pressure Humidity
    00:00 +16°C° 0 mm 2 mps 753 mmHg 89%
    01:00 +16°C° 0 mm 2 mps 752 mmHg 89%
    02:00 +16°C° 0 mm 2 mps 752 mmHg 89%
    03:00 +16°C° 0 mm 2 mps 752 mmHg 89%
    04:00 +15°C° 0 mm 2 mps 752 mmHg 88%
    05:00 +16°C° 0 mm 2 mps 752 mmHg 85%
    06:00 +17°C° 0 mm 3 mps 752 mmHg 81%
    07:00 +18°C° 0 mm 3 mps 753 mmHg 77%
    08:00 +19°C° 0 mm 3 mps 752 mmHg 72%
    09:00 +21°C° 0 mm 4 mps 752 mmHg 66%
    10:00 +22°C° 0 mm 5 mps 752 mmHg 61%
    11:00 +23°C° 0 mm 5 mps 752 mmHg 60%
    12:00 +23°C° 0 mm 5 mps 752 mmHg 59%
    13:00 +23°C° 0 mm 6 mps 752 mmHg 57%
    14:00 +23°C° 0 mm 5 mps 752 mmHg 59%
    15:00 +22°C° 0 mm 5 mps 751 mmHg 60%
    16:00 +21°C° 0 mm 5 mps 751 mmHg 61%
    17:00 +19°C° 0 mm 4 mps 751 mmHg 68%
    18:00 +17°C° 0 mm 4 mps 751 mmHg 75%
    19:00 +14°C° 0 mm 3 mps 751 mmHg 81%
    20:00 +13°C° 0 mm 3 mps 751 mmHg 85%
    21:00 +12°C° 0 mm 3 mps 751 mmHg 88%
    22:00 +12°C° 0 mm 2 mps 751 mmHg 91%
    23:00 +12°C° 0 mm 2 mps 751 mmHg 90%

    Day after tomorrow, 21 June, Friday

    Time Temperature Precipitation Wind Pressure Humidity
    00:00 +10°C° 0 mm 2 mps 751 mmHg 89%
    01:00 +10°C° 0 mm 2 mps 751 mmHg 88%
    02:00 +10°C° 0 mm 2 mps 751 mmHg 86%
    03:00 +10°C° 0 mm 2 mps 751 mmHg 83%
    04:00 +10°C° 0 mm 2 mps 751 mmHg 81%
    05:00 +13°C° 0 mm 2 mps 751 mmHg 75%
    06:00 +15°C° 0 mm 2 mps 751 mmHg 69%
    07:00 +16°C° 0 mm 2 mps 751 mmHg 62%
    08:00 +18°C° 0 mm 3 mps 751 mmHg 60%
    09:00 +20°C° 0 mm 4 mps 751 mmHg 57%
    10:00 +21°C° 0 mm 4 mps 751 mmHg 54%
    11:00 +21°C° 0 mm 5 mps 751 mmHg 54%
    12:00 +21°C° 0 mm 5 mps 751 mmHg 54%
    13:00 +22°C° 0 mm 5 mps 751 mmHg 53%
    14:00 +21°C° 0 mm 5 mps 751 mmHg 55%
    15:00 +20°C° 0 mm 5 mps 750 mmHg 56%
    16:00 +19°C° 0 mm 5 mps 750 mmHg 58%
    17:00 +18°C° 0 mm 4 mps 750 mmHg 65%
    18:00 +16°C° 0 mm 3 mps 750 mmHg 72%
    19:00 +13°C° 0 mm 3 mps 750 mmHg 78%
    20:00 +14°C° 0 mm 2 mps 750 mmHg 80%
    21:00 +13°C° 0 mm 2 mps 750 mmHg 82%
    22:00 +13°C° 0 mm 1 mps 750 mmHg 83%
    23:00 +13°C° 0 mm 1 mps 750 mmHg 80%

    22 June, Saturday

    Time Temperature Precipitation Wind Pressure Humidity
    00:00 +13°C° 0 mm 1 mps 750 mmHg 76%
    01:00 +13°C° 0 mm 1 mps 750 mmHg 73%
    02:00 +14°C° 0 mm 1 mps 752 mmHg 66%
    03:00 +14°C° 0 mm 1 mps 752 mmHg 64%
    04:00 +15°C° 0 mm 1 mps 752 mmHg 62%
    05:00 +18°C° 0 mm 1 mps 752 mmHg 57%
    06:00 +20°C° 0 mm 1 mps 752 mmHg 52%
    07:00 +22°C° 0 mm 1 mps 753 mmHg 47%
    08:00 +23°C° 0 mm 2 mps 753 mmHg 45%
    09:00 +25°C° 0 mm 2 mps 753 mmHg 43%
    10:00 +27°C° 0 mm 3 mps 753 mmHg 40%
    11:00 +27°C° 0 mm 3 mps 753 mmHg 40%
    12:00 +27°C° 0 mm 4 mps 753 mmHg 40%
    13:00 +28°C° 0 mm 4 mps 753 mmHg 39%
    14:00 +27°C° 0 mm 4 mps 753 mmHg 42%
    15:00 +27°C° 0 mm 4 mps 753 mmHg 44%
    16:00 +26°C° 0 mm 3 mps 753 mmHg 47%
    17:00 +24°C° 0 mm 3 mps 753 mmHg 55%
    18:00 +20°C° 0 mm 2 mps 753 mmHg 64%
    19:00 +19°C° 0 mm 1 mps 753 mmHg 73%
    20:00 +18°C° 0 mm 1 mps 753 mmHg 72%
    21:00 +18°C° 0 mm 1 mps 754 mmHg 70%
    22:00 +15°C° 0 mm 0 mps 754 mmHg 69%
    23:00 +16°C° 0 mm 1 mps 754 mmHg 66%

    23 June, Sunday

    Time Temperature Precipitation Wind Pressure Humidity
    00:00 +16°C° 0 mm 1 mps 754 mmHg 62%
    01:00 +18°C° 0 mm 1 mps 753 mmHg 59%
    02:00 +16°C° 0 mm 1 mps 753 mmHg 58%
    03:00 +16°C° 0 mm 1 mps 753 mmHg 56%
    04:00 +16°C° 0 mm 1 mps 753 mmHg 55%
    05:00 +19°C° 0 mm 1 mps 753 mmHg 51%
    06:00 +22°C° 0 mm 1 mps 753 mmHg 46%
    07:00 +24°C° 0 mm 1 mps 753 mmHg 42%
    08:00 +26°C° 0 mm 1 mps 753 mmHg 38%
    09:00 +28°C° 0 mm 2 mps 753 mmHg 34%
    10:00 +31°C° 0 mm 2 mps 753 mmHg 29%
    11:00 +30°C° 0 mm 2 mps 753 mmHg 31%
    12:00 +30°C° 0 mm 3 mps 753 mmHg 33%
    13:00 +30°C° 0 mm 3 mps 753 mmHg 34%
    14:00 +29°C° 0 mm 3 mps 752 mmHg 37%
    15:00 +28°C° 0 mm 3 mps 752 mmHg 40%
    16:00 +27°C° 0 mm 3 mps 752 mmHg 43%
    17:00 +24°C° 0 mm 3 mps 752 mmHg 51%
    18:00 +21°C° 0 mm 2 mps 752 mmHg 60%
    19:00 +20°C° 0 mm 1 mps 752 mmHg 68%
    20:00 +19°C° 0 mm 1 mps 752 mmHg 67%
    21:00 +18°C° 0 mm 1 mps 752 mmHg 66%
    22:00 +16°C° 0 mm 1 mps 752 mmHg 65%
    23:00 +16°C° 0 mm 1 mps 752 mmHg 64%

    24 June, Monday

    Time Temperature Precipitation Wind Pressure Humidity
    00:00 +16°C° 0 mm 1 mps 752 mmHg 62%
    01:00 +16°C° 0 mm 1 mps 751 mmHg 61%
    02:00 +16°C° 0 mm 1 mps 751 mmHg 61%
    03:00 +15°C° 0 mm 2 mps 751 mmHg 62%
    04:00 +15°C° 0 mm 2 mps 751 mmHg 63%
    05:00 +17°C° 0 mm 2 mps 751 mmHg 60%
    06:00 +18°C° 0 mm 2 mps 751 mmHg 57%
    07:00 +19°C° 0 mm 2 mps 751 mmHg 53%
    08:00 +21°C° 0 mm 3 mps 751 mmHg 49%
    09:00 +24°C° 0 mm 3 mps 751 mmHg 45%
    10:00 +26°C° 0 mm 4 mps 752 mmHg 40%
    11:00 +26°C° 0 mm 4 mps 751 mmHg 41%
    12:00 +26°C° 0 mm 4 mps 751 mmHg 42%
    13:00 +26°C° 0 mm 5 mps 751 mmHg 43%
    14:00 +25°C° 0 mm 5 mps 751 mmHg 44%
    15:00 +23°C° 0 mm 5 mps 751 mmHg 45%
    16:00 +22°C° 0 mm 5 mps 750 mmHg 46%
    17:00 +21°C° 0 mm 5 mps 750 mmHg 51%
    18:00 +19°C° 0 mm 5 mps 750 mmHg 56%
    19:00 +16°C° 0 mm 5 mps 751 mmHg 62%
    20:00 +15°C° 0 mm 5 mps 751 mmHg 64%
    21:00 +14°C° 0 mm 5 mps 751 mmHg 67%
    22:00 +13°C° 0 mm 5 mps 752 mmHg 70%
    23:00 +13°C° 0 mm 4 mps 751 mmHg 72%
    Show more